User: anonymous   Login
Location: Unspecified
(0.0000°N, 0.0000°E)
Time: 10:24:28
(UTC+00:00)
Language:

CICERO 8 - Orbit

View from above orbital plane
View from above orbital plane
View from above satellite
View from above satellite

Ground track
Ground track

The orbit data is extracted from the following two-line orbital elements,

1 43737U 18096U   19107.90236997 +.00002113 +00000-0 +80484-4 0  9996
2 43737 097.4636 178.1712 0022466 194.0508 166.0109 15.27651966021335
Epoch (UTC): 17 April 2019 21:39:24
Eccentricity: 0.0022466
inclination: 97.4636°
perigee height: 467 km
apogee height: 498 km
right ascension of ascending node: 178.1712°
argument of perigee: 194.0508°
revolutions per day: 15.27651966
mean anomaly at epoch: 166.0109°
orbit number at epoch: 2133

The dashed part of the orbit path shows where the satellite is in the earth's shadow,  

DLR